Year,Month,Day,Hour,Minute,Value (Times are PST for temperature in C)
2007,10,26,00,00,2.00
2007,10,26,00,01,2.00
2007,10,26,00,02,2.10
2007,10,26,00,03,2.10
2007,10,26,00,04,2.10
2007,10,26,00,05,2.10
2007,10,26,00,06,2.10
2007,10,26,00,07,2.10
2007,10,26,00,08,2.10
2007,10,26,00,09,2.00
2007,10,26,00,10,2.00
2007,10,26,00,11,1.90
2007,10,26,00,12,1.90
2007,10,26,00,13,1.90
2007,10,26,00,14,1.90
2007,10,26,00,15,1.90
2007,10,26,00,16,1.90
2007,10,26,00,17,1.90
2007,10,26,00,18,1.90
2007,10,26,00,19,1.90
2007,10,26,00,20,1.90
2007,10,26,00,21,1.90
2007,10,26,00,22,1.80
2007,10,26,00,23,1.80
2007,10,26,00,24,1.80
2007,10,26,00,25,1.80
2007,10,26,00,26,1.70
2007,10,26,00,27,1.70
2007,10,26,00,28,1.70
2007,10,26,00,29,1.60
2007,10,26,00,30,1.60
2007,10,26,00,31,1.60
2007,10,26,00,32,1.60
2007,10,26,00,33,1.60
2007,10,26,00,34,1.60
2007,10,26,00,35,1.60
2007,10,26,00,36,1.60
2007,10,26,00,37,1.60
2007,10,26,00,38,1.60
2007,10,26,00,39,1.60
2007,10,26,00,40,1.60
2007,10,26,00,41,1.60
2007,10,26,00,42,1.60
2007,10,26,00,43,1.60
2007,10,26,00,44,1.70
2007,10,26,00,45,1.70
2007,10,26,00,46,1.70
2007,10,26,00,47,1.70
2007,10,26,00,48,1.80
2007,10,26,00,49,1.80
2007,10,26,00,50,1.80
2007,10,26,00,51,1.80
2007,10,26,00,52,1.80
2007,10,26,00,53,1.70
2007,10,26,00,54,1.70
2007,10,26,00,55,1.70
2007,10,26,00,56,1.70
2007,10,26,00,57,1.70
2007,10,26,00,58,1.70
2007,10,26,00,59,1.60
2007,10,26,01,00,1.60
2007,10,26,01,01,1.70
2007,10,26,01,02,1.70
2007,10,26,01,03,1.70
2007,10,26,01,04,1.70
2007,10,26,01,05,1.70
2007,10,26,01,06,1.70
2007,10,26,01,07,1.70
2007,10,26,01,08,1.70
2007,10,26,01,09,1.70
2007,10,26,01,10,1.70
2007,10,26,01,11,1.70
2007,10,26,01,12,1.70
2007,10,26,01,13,1.70
2007,10,26,01,14,1.70
2007,10,26,01,15,1.70
2007,10,26,01,16,1.60
2007,10,26,01,17,1.60
2007,10,26,01,18,1.60
2007,10,26,01,19,1.60
2007,10,26,01,20,1.50
2007,10,26,01,21,1.50
2007,10,26,01,22,1.50
2007,10,26,01,23,1.50
2007,10,26,01,24,1.50
2007,10,26,01,25,1.40
2007,10,26,01,26,1.40
2007,10,26,01,27,1.40
2007,10,26,01,28,1.50
2007,10,26,01,29,1.50
2007,10,26,01,30,1.60
2007,10,26,01,31,1.60
2007,10,26,01,32,1.60
2007,10,26,01,33,1.60
2007,10,26,01,34,1.60
2007,10,26,01,35,1.60
2007,10,26,01,36,1.50
2007,10,26,01,37,1.50
2007,10,26,01,38,1.50
2007,10,26,01,39,1.50
2007,10,26,01,40,1.40
2007,10,26,01,41,1.40
2007,10,26,01,42,1.30
2007,10,26,01,43,1.30
2007,10,26,01,44,1.30
2007,10,26,01,45,1.30
2007,10,26,01,46,1.30
2007,10,26,01,47,1.30
2007,10,26,01,48,1.30
2007,10,26,01,49,1.30
2007,10,26,01,50,1.20
2007,10,26,01,51,1.20
2007,10,26,01,52,1.20
2007,10,26,01,53,1.20
2007,10,26,01,54,1.20
2007,10,26,01,55,1.30
2007,10,26,01,56,1.30
2007,10,26,01,57,1.30
2007,10,26,01,58,1.30
2007,10,26,01,59,1.30
2007,10,26,02,00,1.30
2007,10,26,02,01,1.30
2007,10,26,02,02,1.30
2007,10,26,02,03,1.20
2007,10,26,02,04,1.20
2007,10,26,02,05,1.20
2007,10,26,02,06,1.20
2007,10,26,02,07,1.20
2007,10,26,02,08,1.10
2007,10,26,02,09,1.10
2007,10,26,02,10,1.10
2007,10,26,02,11,1.10
2007,10,26,02,12,1.00
2007,10,26,02,13,1.00
2007,10,26,02,14,1.00
2007,10,26,02,15,0.90
2007,10,26,02,16,0.90
2007,10,26,02,17,0.90
2007,10,26,02,18,0.90
2007,10,26,02,19,1.00
2007,10,26,02,20,1.00
2007,10,26,02,21,1.00
2007,10,26,02,22,1.00
2007,10,26,02,23,1.00
2007,10,26,02,24,1.00
2007,10,26,02,25,1.00
2007,10,26,02,26,0.90
2007,10,26,02,27,0.90
2007,10,26,02,28,0.90
2007,10,26,02,29,0.90
2007,10,26,02,30,0.90
2007,10,26,02,31,0.90
2007,10,26,02,32,0.90
2007,10,26,02,33,0.90
2007,10,26,02,34,0.90
2007,10,26,02,35,0.90
2007,10,26,02,36,0.90
2007,10,26,02,37,0.90
2007,10,26,02,38,0.90
2007,10,26,02,39,0.90
2007,10,26,02,40,0.90
2007,10,26,02,41,1.00
2007,10,26,02,42,1.00
2007,10,26,02,43,1.00
2007,10,26,02,44,1.00
2007,10,26,02,45,1.00
2007,10,26,02,46,1.00
2007,10,26,02,47,1.00
2007,10,26,02,48,1.00
2007,10,26,02,49,1.10
2007,10,26,02,50,1.10
2007,10,26,02,51,1.10
2007,10,26,02,52,1.00
2007,10,26,02,53,1.00
2007,10,26,02,54,1.00
2007,10,26,02,55,0.90
2007,10,26,02,56,0.90
2007,10,26,02,57,0.90
2007,10,26,02,58,0.90
2007,10,26,02,59,0.80
2007,10,26,03,00,0.80
2007,10,26,03,01,0.80
2007,10,26,03,02,0.80
2007,10,26,03,03,0.70
2007,10,26,03,04,0.70
2007,10,26,03,05,0.70
2007,10,26,03,06,0.70
2007,10,26,03,07,0.70
2007,10,26,03,08,0.60
2007,10,26,03,09,0.60
2007,10,26,03,10,0.60
2007,10,26,03,11,0.60
2007,10,26,03,12,0.60
2007,10,26,03,13,0.70
2007,10,26,03,14,0.70
2007,10,26,03,15,0.70
2007,10,26,03,16,0.80
2007,10,26,03,17,0.80
2007,10,26,03,18,0.80
2007,10,26,03,19,0.80
2007,10,26,03,20,0.80
2007,10,26,03,21,0.70
2007,10,26,03,22,0.70
2007,10,26,03,23,0.70
2007,10,26,03,24,0.70
2007,10,26,03,25,0.70
2007,10,26,03,26,0.70
2007,10,26,03,27,0.60
2007,10,26,03,28,0.60
2007,10,26,03,29,0.60
2007,10,26,03,30,0.60
2007,10,26,03,31,0.60
2007,10,26,03,32,0.60
2007,10,26,03,33,0.60
2007,10,26,03,34,0.60
2007,10,26,03,35,0.60
2007,10,26,03,36,0.50
2007,10,26,03,37,0.50
2007,10,26,03,38,0.50
2007,10,26,03,39,0.50
2007,10,26,03,40,0.50
2007,10,26,03,41,0.50
2007,10,26,03,42,0.50
2007,10,26,03,43,0.50
2007,10,26,03,44,0.50
2007,10,26,03,45,0.50
2007,10,26,03,46,0.60
2007,10,26,03,47,0.60
2007,10,26,03,48,0.60
2007,10,26,03,49,0.60
2007,10,26,03,50,0.60
2007,10,26,03,51,0.70
2007,10,26,03,52,0.70
2007,10,26,03,53,0.70
2007,10,26,03,54,0.70
2007,10,26,03,55,0.80
2007,10,26,03,56,0.90
2007,10,26,03,57,0.90
2007,10,26,03,58,1.00
2007,10,26,03,59,1.20
2007,10,26,04,00,1.30
2007,10,26,04,01,1.50
2007,10,26,04,02,1.80
2007,10,26,04,03,1.90
2007,10,26,04,04,2.20
2007,10,26,04,05,2.40
2007,10,26,04,06,2.60
2007,10,26,04,07,2.70
2007,10,26,04,08,2.90
2007,10,26,04,09,3.10
2007,10,26,04,10,3.20
2007,10,26,04,11,3.30
2007,10,26,04,12,3.50
2007,10,26,04,13,3.60
2007,10,26,04,14,3.70
2007,10,26,04,15,3.90
2007,10,26,04,16,4.00
2007,10,26,04,17,4.10
2007,10,26,04,18,4.20
2007,10,26,04,19,4.40
2007,10,26,04,20,4.50
2007,10,26,04,21,4.60
2007,10,26,04,22,4.70
2007,10,26,04,23,4.80
2007,10,26,04,24,4.80
2007,10,26,04,25,4.90
2007,10,26,04,26,5.00
2007,10,26,04,27,5.10
2007,10,26,04,28,5.10
2007,10,26,04,29,5.20
2007,10,26,04,30,5.30
2007,10,26,04,31,5.30
2007,10,26,04,32,5.40
2007,10,26,04,33,5.50
2007,10,26,04,34,5.50
2007,10,26,04,35,5.50
2007,10,26,04,36,5.60
2007,10,26,04,37,5.70
2007,10,26,04,38,5.70
2007,10,26,04,39,5.70
2007,10,26,04,40,5.70
2007,10,26,04,41,5.80
2007,10,26,04,42,5.80
2007,10,26,04,43,5.80
2007,10,26,04,44,5.80
2007,10,26,04,45,5.80
2007,10,26,04,46,5.80
2007,10,26,04,47,5.90
2007,10,26,04,48,5.90
2007,10,26,04,49,5.90
2007,10,26,04,50,5.90
2007,10,26,04,51,5.90
2007,10,26,04,52,6.00
2007,10,26,04,53,6.00
2007,10,26,04,54,6.00
2007,10,26,04,55,6.10
2007,10,26,04,56,6.10
2007,10,26,04,57,6.10
2007,10,26,04,58,6.10
2007,10,26,04,59,6.00
2007,10,26,05,00,6.00
2007,10,26,05,01,6.00
2007,10,26,05,02,6.00
2007,10,26,05,03,6.00
2007,10,26,05,04,6.00
2007,10,26,05,05,6.00
2007,10,26,05,06,6.00
2007,10,26,05,07,6.00
2007,10,26,05,08,6.00
2007,10,26,05,09,6.00
2007,10,26,05,10,6.00
2007,10,26,05,11,6.00
2007,10,26,05,12,6.00
2007,10,26,05,13,6.00
2007,10,26,05,14,5.90
2007,10,26,05,15,6.00
2007,10,26,05,16,6.00
2007,10,26,05,17,6.00
2007,10,26,05,18,6.00
2007,10,26,05,19,6.00
2007,10,26,05,20,6.00
2007,10,26,05,21,6.00
2007,10,26,05,22,6.00
2007,10,26,05,23,6.00
2007,10,26,05,24,6.00
2007,10,26,05,25,6.00
2007,10,26,05,26,6.00
2007,10,26,05,27,6.00
2007,10,26,05,28,6.00
2007,10,26,05,29,6.00
2007,10,26,05,30,6.00
2007,10,26,05,31,6.00
2007,10,26,05,32,6.00
2007,10,26,05,33,6.00
2007,10,26,05,34,6.00
2007,10,26,05,35,6.00
2007,10,26,05,36,6.00
2007,10,26,05,37,6.00
2007,10,26,05,38,6.00
2007,10,26,05,39,6.00
2007,10,26,05,40,6.00
2007,10,26,05,41,6.00
2007,10,26,05,42,6.00
2007,10,26,05,43,6.00
2007,10,26,05,44,6.00
2007,10,26,05,45,6.00
2007,10,26,05,46,6.00
2007,10,26,05,47,6.00
2007,10,26,05,48,6.00
2007,10,26,05,49,6.00
2007,10,26,05,50,5.90
2007,10,26,05,51,5.90
2007,10,26,05,52,5.90
2007,10,26,05,53,5.90
2007,10,26,05,54,5.90
2007,10,26,05,55,5.90
2007,10,26,05,56,5.90
2007,10,26,05,57,5.90
2007,10,26,05,58,5.90
2007,10,26,05,59,5.80
2007,10,26,06,00,5.80
2007,10,26,06,01,5.80
2007,10,26,06,02,5.80
2007,10,26,06,03,5.80
2007,10,26,06,04,5.80
2007,10,26,06,05,5.70
2007,10,26,06,06,5.70
2007,10,26,06,07,5.70
2007,10,26,06,08,5.70
2007,10,26,06,09,5.70
2007,10,26,06,10,5.70
2007,10,26,06,11,5.80
2007,10,26,06,12,5.70
2007,10,26,06,13,5.70
2007,10,26,06,14,5.70
2007,10,26,06,15,5.70
2007,10,26,06,16,5.70
2007,10,26,06,17,5.70
2007,10,26,06,18,5.70
2007,10,26,06,19,5.70
2007,10,26,06,20,5.80
2007,10,26,06,21,5.70
2007,10,26,06,22,5.70
2007,10,26,06,23,5.70
2007,10,26,06,24,5.80
2007,10,26,06,25,5.80
2007,10,26,06,26,5.80
2007,10,26,06,27,5.70
2007,10,26,06,28,5.70
2007,10,26,06,29,5.70
2007,10,26,06,30,5.70
2007,10,26,06,31,5.70
2007,10,26,06,32,5.70
2007,10,26,06,33,5.70
2007,10,26,06,34,5.60
2007,10,26,06,35,5.60
2007,10,26,06,36,5.60
2007,10,26,06,37,5.60
2007,10,26,06,38,5.60
2007,10,26,06,39,5.60
2007,10,26,06,40,5.60
2007,10,26,06,41,5.60
2007,10,26,06,42,5.60
2007,10,26,06,43,5.60
2007,10,26,06,44,5.60
2007,10,26,06,45,5.50
2007,10,26,06,46,5.50
2007,10,26,06,47,5.50
2007,10,26,06,48,5.50
2007,10,26,06,49,5.50
2007,10,26,06,50,5.50
2007,10,26,06,51,5.40
2007,10,26,06,52,5.40
2007,10,26,06,53,5.40
2007,10,26,06,54,5.40
2007,10,26,06,55,5.40
2007,10,26,06,56,5.40
2007,10,26,06,57,5.50
2007,10,26,06,58,5.50
2007,10,26,06,59,5.50
2007,10,26,07,00,5.50
2007,10,26,07,01,5.50
2007,10,26,07,02,5.50
2007,10,26,07,03,5.50
2007,10,26,07,04,5.50
2007,10,26,07,05,5.50
2007,10,26,07,06,5.50
2007,10,26,07,07,5.60
2007,10,26,07,08,5.60
2007,10,26,07,09,5.60
2007,10,26,07,10,5.60
2007,10,26,07,11,5.70
2007,10,26,07,12,5.70
2007,10,26,07,13,5.70
2007,10,26,07,14,5.70
2007,10,26,07,15,5.70
2007,10,26,07,16,5.70
2007,10,26,07,17,5.80
2007,10,26,07,18,5.80
2007,10,26,07,19,5.80
2007,10,26,07,20,5.80
2007,10,26,07,21,5.80
2007,10,26,07,22,5.80
2007,10,26,07,23,5.80
2007,10,26,07,24,5.80
2007,10,26,07,25,5.90
2007,10,26,07,26,5.90
2007,10,26,07,27,5.90
2007,10,26,07,28,5.90
2007,10,26,07,29,5.90
2007,10,26,07,30,5.90
2007,10,26,07,31,5.90
2007,10,26,07,32,5.90
2007,10,26,07,33,6.00
2007,10,26,07,34,6.00
2007,10,26,07,35,6.00
2007,10,26,07,36,6.10
2007,10,26,07,37,6.10
2007,10,26,07,38,6.10
2007,10,26,07,39,6.10
2007,10,26,07,40,6.20
2007,10,26,07,41,6.20
2007,10,26,07,42,6.20
2007,10,26,07,43,6.20
2007,10,26,07,44,6.20
2007,10,26,07,45,6.20
2007,10,26,07,46,6.20
2007,10,26,07,47,6.20
2007,10,26,07,48,6.20
2007,10,26,07,49,6.20
2007,10,26,07,50,6.30
2007,10,26,07,51,6.30
2007,10,26,07,52,6.30
2007,10,26,07,53,6.30
2007,10,26,07,54,6.30
2007,10,26,07,55,6.30
2007,10,26,07,56,6.40
2007,10,26,07,57,6.40
2007,10,26,07,58,6.40
2007,10,26,07,59,6.40
2007,10,26,08,00,6.40
2007,10,26,08,01,6.40
2007,10,26,08,02,6.40
2007,10,26,08,03,6.40
2007,10,26,08,04,6.40
2007,10,26,08,05,6.40
2007,10,26,08,06,6.40
2007,10,26,08,07,6.40
2007,10,26,08,08,6.40
2007,10,26,08,09,6.40
2007,10,26,08,10,6.40
2007,10,26,08,11,6.40
2007,10,26,08,12,6.40
2007,10,26,08,13,6.40
2007,10,26,08,14,6.40
2007,10,26,08,15,6.40
2007,10,26,08,16,6.40
2007,10,26,08,17,6.30
2007,10,26,08,18,6.30
2007,10,26,08,19,6.30
2007,10,26,08,20,6.30
2007,10,26,08,21,6.30
2007,10,26,08,22,6.40
2007,10,26,08,23,6.40
2007,10,26,08,24,6.40
2007,10,26,08,25,6.40
2007,10,26,08,26,6.40
2007,10,26,08,27,6.40
2007,10,26,08,28,6.40
2007,10,26,08,29,6.40
2007,10,26,08,30,6.40
2007,10,26,08,31,6.40
2007,10,26,08,32,6.40
2007,10,26,08,33,6.50
2007,10,26,08,34,6.50
2007,10,26,08,35,6.50
2007,10,26,08,36,6.60
2007,10,26,08,37,6.60
2007,10,26,08,38,6.60
2007,10,26,08,39,6.60
2007,10,26,08,40,6.70
2007,10,26,08,41,6.70
2007,10,26,08,42,6.70
2007,10,26,08,43,6.70
2007,10,26,08,44,6.80
2007,10,26,08,45,6.80
2007,10,26,08,46,6.80
2007,10,26,08,47,6.80
2007,10,26,08,48,6.80
2007,10,26,08,49,6.90
2007,10,26,08,50,6.90
2007,10,26,08,51,6.90
2007,10,26,08,52,6.90
2007,10,26,08,53,7.00
2007,10,26,08,54,7.00
2007,10,26,08,55,7.00
2007,10,26,08,56,7.10
2007,10,26,08,57,7.10
2007,10,26,08,58,7.20
2007,10,26,08,59,7.20
2007,10,26,09,00,7.20
2007,10,26,09,01,7.20
2007,10,26,09,02,7.20
2007,10,26,09,03,7.20
2007,10,26,09,04,7.20
2007,10,26,09,05,7.20
2007,10,26,09,06,7.20
2007,10,26,09,07,7.20
2007,10,26,09,08,7.20
2007,10,26,09,09,7.30
2007,10,26,09,10,7.30
2007,10,26,09,11,7.30
2007,10,26,09,12,7.30
2007,10,26,09,13,7.30
2007,10,26,09,14,7.30
2007,10,26,09,15,7.30
2007,10,26,09,16,7.30
2007,10,26,09,17,7.30
2007,10,26,09,18,7.30
2007,10,26,09,19,7.40
2007,10,26,09,20,7.40
2007,10,26,09,21,7.40
2007,10,26,09,22,7.40
2007,10,26,09,23,7.40
2007,10,26,09,24,7.40
2007,10,26,09,25,7.40
2007,10,26,09,26,7.40
2007,10,26,09,27,7.40
2007,10,26,09,28,7.50
2007,10,26,09,29,7.50
2007,10,26,09,30,7.40
2007,10,26,09,31,7.40
2007,10,26,09,32,7.40
2007,10,26,09,33,7.40
2007,10,26,09,34,7.40
2007,10,26,09,35,7.40
2007,10,26,09,36,7.40
2007,10,26,09,37,7.40
2007,10,26,09,38,7.50
2007,10,26,09,39,7.50
2007,10,26,09,40,7.50
2007,10,26,09,41,7.60
2007,10,26,09,42,7.60
2007,10,26,09,43,7.60
2007,10,26,09,44,7.60
2007,10,26,09,45,7.60
2007,10,26,09,46,7.60
2007,10,26,09,47,7.60
2007,10,26,09,48,7.60
2007,10,26,09,49,7.60
2007,10,26,09,50,7.60
2007,10,26,09,51,7.60
2007,10,26,09,52,7.60
2007,10,26,09,53,7.70
2007,10,26,09,54,7.70
2007,10,26,09,55,7.60
2007,10,26,09,56,7.60
2007,10,26,09,57,7.60
2007,10,26,09,58,7.60
2007,10,26,09,59,7.70
2007,10,26,10,00,7.60
2007,10,26,10,01,7.60
2007,10,26,10,02,7.60
2007,10,26,10,03,7.60
2007,10,26,10,04,7.60
2007,10,26,10,05,7.60
2007,10,26,10,06,7.60
2007,10,26,10,07,7.60
2007,10,26,10,08,7.60
2007,10,26,10,09,7.70
2007,10,26,10,10,7.70
2007,10,26,10,11,7.70
2007,10,26,10,12,7.60
2007,10,26,10,13,7.60
2007,10,26,10,14,7.60
2007,10,26,10,15,7.60
2007,10,26,10,16,7.50
2007,10,26,10,17,7.50
2007,10,26,10,18,7.50
2007,10,26,10,19,7.40
2007,10,26,10,20,7.50
2007,10,26,10,21,7.50
2007,10,26,10,22,7.50
2007,10,26,10,23,7.60
2007,10,26,10,24,7.60
2007,10,26,10,25,7.60
2007,10,26,10,26,7.60
2007,10,26,10,27,7.70
2007,10,26,10,28,7.70
2007,10,26,10,29,7.70
2007,10,26,10,30,7.70
2007,10,26,10,31,7.70
2007,10,26,10,32,7.70
2007,10,26,10,33,7.70
2007,10,26,10,34,7.80
2007,10,26,10,35,7.80
2007,10,26,10,36,7.70
2007,10,26,10,37,7.70
2007,10,26,10,38,7.70
2007,10,26,10,39,7.60
2007,10,26,10,40,7.60
2007,10,26,10,41,7.60
2007,10,26,10,42,7.60
2007,10,26,10,43,7.60
2007,10,26,10,44,7.60
2007,10,26,10,45,7.60
2007,10,26,10,46,7.60
2007,10,26,10,47,7.60
2007,10,26,10,48,7.60
2007,10,26,10,49,7.60
2007,10,26,10,50,7.60
2007,10,26,10,51,7.70
2007,10,26,10,52,7.70
2007,10,26,10,53,7.70
2007,10,26,10,54,7.70
2007,10,26,10,55,7.80
2007,10,26,10,56,7.80
2007,10,26,10,57,7.80
2007,10,26,10,58,7.80
2007,10,26,10,59,7.80
2007,10,26,11,00,7.80
2007,10,26,11,01,7.80
2007,10,26,11,02,7.80
2007,10,26,11,03,7.80
2007,10,26,11,04,7.80
2007,10,26,11,05,7.90
2007,10,26,11,06,7.90
2007,10,26,11,07,7.90
2007,10,26,11,08,7.90
2007,10,26,11,09,7.90
2007,10,26,11,10,7.90
2007,10,26,11,11,7.90
2007,10,26,11,12,8.00
2007,10,26,11,13,8.00
2007,10,26,11,14,8.00
2007,10,26,11,15,8.00
2007,10,26,11,16,8.00
2007,10,26,11,17,8.10
2007,10,26,11,18,8.10
2007,10,26,11,19,8.10
2007,10,26,11,20,8.10
2007,10,26,11,21,8.10
2007,10,26,11,22,8.10
2007,10,26,11,23,8.10
2007,10,26,11,24,8.10
2007,10,26,11,25,8.10
2007,10,26,11,26,8.20
2007,10,26,11,27,8.20
2007,10,26,11,28,8.20
2007,10,26,11,29,8.10
2007,10,26,11,30,8.10
2007,10,26,11,31,8.10
2007,10,26,11,32,8.20
2007,10,26,11,33,8.20
2007,10,26,11,34,8.20
2007,10,26,11,35,8.20
2007,10,26,11,36,8.20
2007,10,26,11,37,8.20
2007,10,26,11,38,8.20
2007,10,26,11,39,8.20
2007,10,26,11,40,8.20
2007,10,26,11,41,8.20
2007,10,26,11,42,8.20
2007,10,26,11,43,8.20
2007,10,26,11,44,8.10
2007,10,26,11,45,8.10
2007,10,26,11,46,8.20
2007,10,26,11,47,8.20
2007,10,26,11,48,8.20
2007,10,26,11,49,8.20
2007,10,26,11,50,8.30
2007,10,26,11,51,8.30
2007,10,26,11,52,8.20
2007,10,26,11,53,8.20
2007,10,26,11,54,8.30
2007,10,26,11,55,8.30
2007,10,26,11,56,8.40
2007,10,26,11,57,8.40
2007,10,26,11,58,8.40
2007,10,26,11,59,8.50
2007,10,26,12,00,8.50
2007,10,26,12,01,8.50
2007,10,26,12,02,8.60
2007,10,26,12,03,8.50
2007,10,26,12,04,8.50
2007,10,26,12,05,8.40
2007,10,26,12,06,8.40
2007,10,26,12,07,8.40
2007,10,26,12,08,8.40
2007,10,26,12,09,8.40
2007,10,26,12,10,8.40
2007,10,26,12,11,8.30
2007,10,26,12,12,8.30
2007,10,26,12,13,8.30
2007,10,26,12,14,8.40
2007,10,26,12,15,8.40
2007,10,26,12,16,8.40
2007,10,26,12,17,8.40
2007,10,26,12,18,8.40
2007,10,26,12,19,8.40
2007,10,26,12,20,8.40
2007,10,26,12,21,8.50
2007,10,26,12,22,8.50
2007,10,26,12,23,8.40
2007,10,26,12,24,8.40
2007,10,26,12,25,8.50
2007,10,26,12,26,8.50
2007,10,26,12,27,8.60
2007,10,26,12,28,8.60
2007,10,26,12,29,8.60
2007,10,26,12,30,8.60
2007,10,26,12,31,8.60
2007,10,26,12,32,8.60
2007,10,26,12,33,8.60
2007,10,26,12,34,8.60
2007,10,26,12,35,8.60
2007,10,26,12,36,8.60
2007,10,26,12,37,8.50
2007,10,26,12,38,8.50
2007,10,26,12,39,8.50
2007,10,26,12,40,8.50
2007,10,26,12,41,8.50
2007,10,26,12,42,8.50
2007,10,26,12,43,8.50
2007,10,26,12,44,8.50
2007,10,26,12,45,8.60
2007,10,26,12,46,8.60
2007,10,26,12,47,8.70
2007,10,26,12,48,8.60
2007,10,26,12,49,8.60
2007,10,26,12,50,8.60
2007,10,26,12,51,8.60
2007,10,26,12,52,8.60
2007,10,26,12,53,8.70
2007,10,26,12,54,8.70
2007,10,26,12,55,8.70
2007,10,26,12,56,8.70
2007,10,26,12,57,8.70
2007,10,26,12,58,8.80
2007,10,26,12,59,8.80
2007,10,26,13,00,8.80
2007,10,26,13,01,8.70
2007,10,26,13,02,8.70
2007,10,26,13,03,8.80
2007,10,26,13,04,8.80
2007,10,26,13,05,8.90
2007,10,26,13,06,8.90
2007,10,26,13,07,9.00
2007,10,26,13,08,9.10
2007,10,26,13,09,9.00
2007,10,26,13,10,8.90
2007,10,26,13,11,8.80
2007,10,26,13,12,8.80
2007,10,26,13,13,8.80
2007,10,26,13,14,8.80
2007,10,26,13,15,8.80
2007,10,26,13,16,8.80
2007,10,26,13,17,8.80
2007,10,26,13,18,8.80
2007,10,26,13,19,8.90
2007,10,26,13,20,9.00
2007,10,26,13,21,9.00
2007,10,26,13,22,8.90
2007,10,26,13,23,8.90
2007,10,26,13,24,9.00
2007,10,26,13,25,9.00
2007,10,26,13,26,9.10
2007,10,26,13,27,9.10
2007,10,26,13,28,9.10
2007,10,26,13,29,9.10
2007,10,26,13,30,9.10
2007,10,26,13,31,9.20
2007,10,26,13,32,9.10
2007,10,26,13,33,9.10
2007,10,26,13,34,9.10
2007,10,26,13,35,9.10
2007,10,26,13,36,9.10
2007,10,26,13,37,9.10
2007,10,26,13,38,9.10
2007,10,26,13,39,9.00
2007,10,26,13,40,9.00
2007,10,26,13,41,9.00
2007,10,26,13,42,9.10
2007,10,26,13,43,9.10
2007,10,26,13,44,9.10
2007,10,26,13,45,9.10
2007,10,26,13,46,9.10
2007,10,26,13,47,9.10
2007,10,26,13,48,9.10
2007,10,26,13,49,9.20
2007,10,26,13,50,9.30
2007,10,26,13,51,9.30
2007,10,26,13,52,9.30
2007,10,26,13,53,9.30
2007,10,26,13,54,9.30
2007,10,26,13,55,9.30
2007,10,26,13,56,9.30
2007,10,26,13,57,9.30
2007,10,26,13,58,9.30
2007,10,26,13,59,9.30
2007,10,26,14,00,9.30
2007,10,26,14,01,9.20
2007,10,26,14,02,9.10
2007,10,26,14,03,9.10
2007,10,26,14,04,9.10
2007,10,26,14,05,9.00
2007,10,26,14,06,9.00
2007,10,26,14,07,9.00
2007,10,26,14,08,9.00
2007,10,26,14,09,9.00
2007,10,26,14,10,9.00
2007,10,26,14,11,9.10
2007,10,26,14,12,9.10
2007,10,26,14,13,9.20
2007,10,26,14,14,9.20
2007,10,26,14,15,9.20
2007,10,26,14,16,9.30
2007,10,26,14,17,9.30
2007,10,26,14,18,9.30
2007,10,26,14,19,9.40
2007,10,26,14,20,9.30
2007,10,26,14,21,9.30
2007,10,26,14,22,9.30
2007,10,26,14,23,9.30
2007,10,26,14,24,9.30
2007,10,26,14,25,9.20
2007,10,26,14,26,9.20
2007,10,26,14,27,9.20
2007,10,26,14,28,9.30
2007,10,26,14,29,9.30
2007,10,26,14,30,9.40
2007,10,26,14,31,9.40
2007,10,26,14,32,9.40
2007,10,26,14,33,9.40
2007,10,26,14,34,9.50
2007,10,26,14,35,9.50
2007,10,26,14,36,9.50
2007,10,26,14,37,9.50
2007,10,26,14,38,9.50
2007,10,26,14,39,9.40
2007,10,26,14,40,9.40
2007,10,26,14,41,9.40
2007,10,26,14,42,9.30
2007,10,26,14,43,9.30
2007,10,26,14,44,9.20
2007,10,26,14,45,9.30
2007,10,26,14,46,9.30
2007,10,26,14,47,9.30
2007,10,26,14,48,9.20
2007,10,26,14,49,9.30
2007,10,26,14,50,9.30
2007,10,26,14,51,9.30
2007,10,26,14,52,9.40
2007,10,26,14,53,9.40
2007,10,26,14,54,9.40
2007,10,26,14,55,9.30
2007,10,26,14,56,9.40
2007,10,26,14,57,9.40
2007,10,26,14,58,9.30
2007,10,26,14,59,9.30
2007,10,26,15,00,9.30
2007,10,26,15,01,9.20
2007,10,26,15,02,9.30
2007,10,26,15,03,9.30
2007,10,26,15,04,9.20
2007,10,26,15,05,9.20
2007,10,26,15,06,9.30
2007,10,26,15,07,9.30
2007,10,26,15,08,9.20
2007,10,26,15,09,9.20
2007,10,26,15,10,9.30
2007,10,26,15,11,9.30
2007,10,26,15,12,9.30
2007,10,26,15,13,9.40
2007,10,26,15,14,9.40
2007,10,26,15,15,9.50
2007,10,26,15,16,9.50
2007,10,26,15,17,9.60
2007,10,26,15,18,9.60
2007,10,26,15,19,9.60
2007,10,26,15,20,9.50
2007,10,26,15,21,9.50
2007,10,26,15,22,9.50
2007,10,26,15,23,9.50
2007,10,26,15,24,9.60
2007,10,26,15,25,9.60
2007,10,26,15,26,9.60
2007,10,26,15,27,9.60
2007,10,26,15,28,9.60
2007,10,26,15,29,9.50
2007,10,26,15,30,9.50
2007,10,26,15,31,9.50
2007,10,26,15,32,9.40
2007,10,26,15,33,9.40
2007,10,26,15,34,9.50
2007,10,26,15,35,9.40
2007,10,26,15,36,9.40
2007,10,26,15,37,9.40
2007,10,26,15,38,9.40
2007,10,26,15,39,9.40
2007,10,26,15,40,9.40
2007,10,26,15,41,9.40
2007,10,26,15,42,9.40
2007,10,26,15,43,9.40
2007,10,26,15,44,9.40
2007,10,26,15,45,9.40
2007,10,26,15,46,9.40
2007,10,26,15,47,9.30
2007,10,26,15,48,9.30
2007,10,26,15,49,9.30
2007,10,26,15,50,9.30
2007,10,26,15,51,9.40
2007,10,26,15,52,9.40
2007,10,26,15,53,9.40
2007,10,26,15,54,9.40
2007,10,26,15,55,9.40
2007,10,26,15,56,9.50
2007,10,26,15,57,9.50
2007,10,26,15,58,9.50
2007,10,26,15,59,9.50
2007,10,26,16,00,9.50
2007,10,26,16,01,9.50
2007,10,26,16,02,9.50
2007,10,26,16,03,9.40
2007,10,26,16,04,9.40
2007,10,26,16,05,9.40
2007,10,26,16,06,9.50
2007,10,26,16,07,9.50
2007,10,26,16,08,9.40
2007,10,26,16,09,9.40
2007,10,26,16,10,9.40
2007,10,26,16,11,9.40
2007,10,26,16,12,9.40
2007,10,26,16,13,9.40
2007,10,26,16,14,9.40
2007,10,26,16,15,9.40
2007,10,26,16,16,9.40
2007,10,26,16,17,9.40
2007,10,26,16,18,9.40
2007,10,26,16,19,9.40
2007,10,26,16,20,9.40
2007,10,26,16,21,9.40
2007,10,26,16,22,9.40
2007,10,26,16,23,9.30
2007,10,26,16,24,9.30
2007,10,26,16,25,9.30
2007,10,26,16,26,9.40
2007,10,26,16,27,9.40
2007,10,26,16,28,9.40
2007,10,26,16,29,9.40
2007,10,26,16,30,9.40
2007,10,26,16,31,9.30
2007,10,26,16,32,9.30
2007,10,26,16,33,9.30
2007,10,26,16,34,9.30
2007,10,26,16,35,9.30
2007,10,26,16,36,9.30
2007,10,26,16,37,9.30
2007,10,26,16,38,9.20
2007,10,26,16,39,9.20
2007,10,26,16,40,9.30
2007,10,26,16,41,9.30
2007,10,26,16,42,9.30
2007,10,26,16,43,9.40
2007,10,26,16,44,9.30
2007,10,26,16,45,9.30
2007,10,26,16,46,9.30
2007,10,26,16,47,9.30
2007,10,26,16,48,9.30
2007,10,26,16,49,9.20
2007,10,26,16,50,9.30
2007,10,26,16,51,9.30
2007,10,26,16,52,9.30
2007,10,26,16,53,9.30
2007,10,26,16,54,9.30
2007,10,26,16,55,9.30
2007,10,26,16,56,9.30
2007,10,26,16,57,9.30
2007,10,26,16,58,9.30
2007,10,26,16,59,9.30
2007,10,26,17,00,9.30
2007,10,26,17,01,9.20
2007,10,26,17,02,9.20
2007,10,26,17,03,9.20
2007,10,26,17,04,9.30
2007,10,26,17,05,9.20
2007,10,26,17,06,9.20
2007,10,26,17,07,9.20
2007,10,26,17,08,9.20
2007,10,26,17,09,9.20
2007,10,26,17,10,9.20
2007,10,26,17,11,9.20
2007,10,26,17,12,9.20
2007,10,26,17,13,9.20
2007,10,26,17,14,9.20
2007,10,26,17,15,9.10
2007,10,26,17,16,9.10
2007,10,26,17,17,9.10
2007,10,26,17,18,9.10
2007,10,26,17,19,9.10
2007,10,26,17,20,9.00
2007,10,26,17,21,9.00
2007,10,26,17,22,8.90
2007,10,26,17,23,8.90
2007,10,26,17,24,8.90
2007,10,26,17,25,8.90
2007,10,26,17,26,8.90
2007,10,26,17,27,8.90
2007,10,26,17,28,8.90
2007,10,26,17,29,8.90
2007,10,26,17,30,8.80
2007,10,26,17,31,8.80
2007,10,26,17,32,8.80
2007,10,26,17,33,8.80
2007,10,26,17,34,8.80
2007,10,26,17,35,8.80
2007,10,26,17,36,8.80
2007,10,26,17,37,8.70
2007,10,26,17,38,8.70
2007,10,26,17,39,8.70
2007,10,26,17,40,8.70
2007,10,26,17,41,8.70
2007,10,26,17,42,8.70
2007,10,26,17,43,8.60
2007,10,26,17,44,8.60
2007,10,26,17,45,8.60
2007,10,26,17,46,8.60
2007,10,26,17,47,8.60
2007,10,26,17,48,8.60
2007,10,26,17,49,8.60
2007,10,26,17,50,8.60
2007,10,26,17,51,8.50
2007,10,26,17,52,8.50
2007,10,26,17,53,8.50
2007,10,26,17,54,8.40
2007,10,26,17,55,8.40
2007,10,26,17,56,8.40
2007,10,26,17,57,8.40
2007,10,26,17,58,8.40
2007,10,26,17,59,8.40
2007,10,26,18,00,8.30
2007,10,26,18,01,8.30
2007,10,26,18,02,8.30
2007,10,26,18,03,8.30
2007,10,26,18,04,8.30
2007,10,26,18,05,8.30
2007,10,26,18,06,8.20